Tracking 19832 objects as of 24-Aug-2019
HD Live streaming from Space Station
objects crossing your sky now

SCOUT B-1 R/B

Track SCOUT B-1 R/B now!
10-day predictions


NORAD ID: 6180
Int'l Code: 1972-069B
Perigee: 657.5 km
Apogee: 711.1 km
Inclination: 89.9 °
Period: 98.3 minutes
Semi major axis: 7055 km
RCS: 0.7995 m2 (medium)
Launch date: September 2, 1972
Source: United States (US)
Launch site: AIR FORCE WESTERN TEST RANGE (AFWTR)

Note: This is a ROCKET BODY
aabbcc
Your satellite tracking list
Your tracking list is empty




NASA's NSSDC Master Catalog

Two Line Element Set (TLE):
1  6180U 72069B   19236.50855816  .00000150  00000-0  25162-4 0  9994
2  6180  89.9426 219.2141 0038005 251.7270 107.9808 14.64967749483257
Source of the keplerian elements: AFSPC